Probability
77 74 74 74 68 65 65 61 61 61 58 52 48 48 42 35 35 35 32 32 29 26 26 26 29 32 29 29 35 32 23 19 13 19 13 6 6 3 3 3 3 3 3
74 71 71 68 65 65 61 61 61 52 48 52 45 45 32 29 32 32 29 29 26 23 23 26 26 19 23 26 26 19 23 23 19 13 13 6 6 6 3 3 3 3 3
71 71 68 65 65 61 61 58 52 48 45 45 42 35 32 29 26 26 32 29 26 26 26 26 23 19 26 23 19 19 19 19 19 19 10 6 6 3 3 3 3 3 3
71 71 68 68 65 58 58 52 48 45 42 42 35 35 32 29 29 29 29 29 29 29 29 29 23 19 23 19 19 19 19 19 23 16 6 6 6 6 6 3 3 3 3
74 74 68 65 55 55 55 52 48 48 39 42 39 32 32 29 29 29 29 29 32 29 26 26 19 19 16 16 16 19 19 16 19 10 6 6 6 6 6 6 3 3 3
74 68 65 61 58 52 52 48 48 48 45 45 39 32 32 29 26 23 26 29 32 29 26 16 16 16 16 6 6 6 6 10 13 10 10 6 6 6 6 6 3 3 3
71 68 65 61 52 52 45 48 48 48 48 45 42 35 35 26 16 10 6 26 32 32 29 26 16 13 16 13 6 0 0 0 0 10 10 10 6 6 6 6 3 6 3
68 65 61 58 52 48 48 48 52 52 48 45 42 39 39 32 16 10 10 19 29 29 26 19 16 13 10 10 10 10 10 3 0 3 6 10 10 6 3 3 3 3 3
81 74 61 55 55 48 48 48 48 48 48 45 42 42 39 26 13 10 13 26 29 23 23 19 19 13 6 6 6 6 6 3 0 0 0 0 0 0 0 0 3 3 3
74 71 65 61 61 48 52 48 48 48 48 42 42 42 42 32 16 10 6 19 29 26 23 16 10 13 6 3 3 10 6 6 0 0 0 0 0 0 0 0 0 0 3
71 74 68 71 65 58 55 55 52 48 48 42 42 42 35 29 16 10 6 16 26 26 19 16 6 3 0 0 3 3 6 3 0 3 0 0 0 3 3 0 0 0 0
68 71 68 65 58 45 55 55 55 55 52 48 45 42 32 29 16 13 6 3 10 16 19 10 6 0 0 0 0 3 0 3 3 3 3 0 3 3 3 3 3 3 0
74 71 68 68 65 55 55 55 52 52 48 42 39 35 32 35 19 10 0 0 3 3 6 6 3 0 0 0 0 0 0 0 3 6 3 3 3 3 3 3 3 0 0
65 65 61 58 58 61 55 52 45 48 48 45 39 35 32 39 19 6 3 0 0 0 3 0 0 0 0 0 0 0 0 3 6 6 3 3 3 3 3 3 3 0 0
61 55 55 48 52 52 48 42 39 39 32 32 39 35 32 29 13 6 6 6 3 3 3 3 0 0 0 3 3 3 3 6 6 6 6 3 3 3 3 3 3 0 0
52 52 45 42 48 42 42 29 10 10 10 10 10 13 13 6 6 3 3 3 3 3 0 3 3 3 3 6 6 6 6 6 6 6 6 3 3 3 0 3 3 0 0
55 55 48 48 42 42 39 39 26 10 6 3 3 3 6 3 3 0 0 0 0 0 0 3 6 6 6 6 6 6 3 6 6 6 6 3 3 0 0 0 0 0 0
48 48 45 45 42 42 39 35 32 26 13 13 3 0 0 0 3 0 0 0 0 0 3 6 6 10 10 3 3 3 3 3 6 3 3 0 0 0 0 0 0 0 0
52 52 48 48 45 39 32 29 32 29 23 19 10 3 0 0 0 0 0 3 6 3 3 3 6 6 3 3 3 3 3 3 3 3 3 3 0 0 0 0 0 0 0
55 32 35 45 39 35 29 26 29 29 29 23 16 13 3 0 3 0 0 3 3 3 6 6 3 3 3 3 3 3 3 3 3 3 3 3 0 0 0 0 0 0 0
35 32 23 26 29 32 29 29 29 32 26 23 19 13 3 3 3 3 3 3 3 3 3 3 3 3 3 3 3 3 3 3 3 3 3 3 3 0 0 0 0 0 0
32 26 35 32 26 26 19 26 29 26 23 19 19 13 3 3 3 3 3 3 3 3 3 3 3 3 3 3 3 3 3 3 3 3 3 3 3 0 0 0 0 0 0
32 29 32 23 26 19 16 16 19 19 13 13 13 10 6 3 6 6 6 3 3 3 3 3 3 3 3 3 3 3 3 3 3 3 3 3 3 3 0 0 0 0 0
26 26 19 16 19 16 16 16 16 16 19 13 13 10 10 6 3 3 3 3 3 3 3 3 3 3 3 3 3 3 3 3 3 3 3 3 3 3 0 0 0 0 0
32 29 16 19 16 16 16 19 16 16 16 16 13 10 10 10 10 6 3 3 3 3 3 3 3 3 3 3 3 3 3 3 3 3 3 3 3 3 3 0 0 0 0
29 19 19 16 16 16 19 13 10 16 16 16 16 13 10 6 6 10 6 3 3 3 3 3 3 3 3 3 3 3 0 0 0 0 3 3 3 3 0 0 0 0 0
Height
5917 5914 5912 5910 5908 5907 5904 5902 5901 5899 5896 5894 5892 5890 5888 5886 5883 5881 5879 5877 5875 5874 5872 5871 5870 5868 5866 5865 5863 5861 5860 5858 5857 5855 5853 5851 5849 5847 5845 5844 5842 5841 5839
5916 5914 5912 5910 5908 5906 5904 5901 5900 5898 5895 5893 5891 5889 5887 5884 5882 5879 5877 5875 5873 5871 5870 5868 5867 5865 5863 5861 5860 5858 5856 5854 5853 5851 5849 5847 5845 5843 5841 5840 5838 5836 5834
5914 5913 5911 5909 5907 5905 5903 5901 5899 5896 5894 5892 5890 5888 5885 5882 5880 5878 5875 5873 5871 5869 5867 5866 5864 5862 5860 5858 5856 5854 5852 5850 5848 5847 5845 5843 5841 5839 5837 5835 5833 5831 5829
5913 5911 5909 5907 5906 5904 5902 5899 5897 5895 5892 5890 5888 5885 5883 5881 5878 5876 5874 5871 5869 5867 5865 5863 5861 5859 5857 5854 5852 5850 5848 5846 5844 5842 5840 5839 5837 5834 5832 5830 5828 5826 5825
5911 5909 5907 5905 5904 5902 5900 5897 5895 5892 5890 5888 5885 5883 5881 5878 5876 5874 5872 5869 5867 5865 5862 5860 5857 5855 5853 5850 5848 5846 5844 5842 5840 5838 5836 5834 5832 5830 5828 5825 5823 5821 5819
5908 5906 5905 5903 5901 5899 5897 5895 5892 5890 5888 5885 5883 5880 5878 5876 5873 5871 5869 5866 5864 5861 5859 5857 5854 5851 5849 5846 5844 5841 5839 5837 5835 5834 5832 5830 5828 5825 5823 5820 5818 5816 5814
5905 5903 5901 5900 5898 5896 5894 5892 5889 5887 5885 5882 5880 5877 5875 5873 5870 5868 5865 5863 5860 5858 5855 5853 5850 5847 5844 5842 5839 5837 5835 5832 5831 5829 5827 5825 5822 5820 5818 5815 5812 5810 5807
5901 5899 5898 5896 5894 5893 5891 5888 5886 5884 5882 5879 5877 5874 5872 5869 5867 5864 5862 5859 5856 5854 5851 5848 5846 5843 5840 5837 5835 5832 5830 5827 5825 5824 5821 5819 5817 5814 5812 5809 5806 5804 5801
5897 5895 5893 5892 5890 5889 5887 5885 5882 5880 5878 5876 5873 5871 5868 5866 5863 5861 5858 5855 5853 5850 5847 5844 5841 5839 5836 5833 5830 5828 5825 5823 5821 5818 5816 5813 5811 5808 5805 5802 5799 5796 5794
5892 5890 5889 5887 5885 5884 5882 5880 5878 5876 5874 5872 5869 5867 5864 5862 5859 5857 5854 5851 5849 5846 5843 5840 5837 5834 5831 5828 5826 5823 5821 5818 5816 5813 5810 5808 5805 5802 5798 5795 5792 5790 5787
5886 5885 5883 5882 5880 5878 5877 5875 5873 5871 5869 5867 5865 5863 5860 5858 5855 5852 5850 5847 5844 5842 5839 5836 5833 5830 5827 5824 5821 5818 5816 5813 5810 5808 5805 5802 5799 5796 5792 5789 5786 5783 5780
5880 5879 5877 5876 5874 5873 5871 5870 5868 5866 5864 5862 5860 5858 5856 5853 5851 5848 5845 5843 5840 5837 5834 5832 5828 5825 5822 5819 5816 5813 5810 5807 5804 5802 5799 5796 5793 5790 5786 5782 5779 5776 5773
5874 5873 5871 5870 5869 5867 5866 5864 5862 5860 5859 5857 5855 5853 5851 5848 5846 5843 5840 5838 5835 5832 5829 5827 5824 5821 5818 5815 5811 5808 5805 5802 5799 5796 5793 5790 5787 5784 5780 5777 5773 5770 5766
5867 5866 5865 5864 5862 5861 5859 5858 5857 5855 5853 5851 5849 5847 5845 5843 5840 5838 5835 5833 5830 5827 5824 5821 5819 5816 5813 5810 5806 5803 5800 5796 5793 5790 5787 5784 5781 5778 5774 5771 5767 5764 5761
5860 5859 5858 5857 5855 5854 5853 5851 5850 5849 5847 5845 5843 5841 5839 5837 5835 5832 5829 5827 5824 5822 5819 5816 5813 5811 5808 5804 5801 5798 5794 5791 5788 5784 5781 5778 5775 5772 5768 5765 5761 5758 5755
5852 5852 5851 5849 5848 5847 5845 5844 5843 5842 5840 5838 5836 5835 5833 5831 5828 5826 5824 5821 5818 5816 5813 5811 5808 5805 5802 5799 5796 5792 5788 5785 5782 5778 5775 5771 5768 5765 5761 5758 5754 5751 5748
5845 5844 5843 5842 5840 5839 5838 5837 5836 5835 5833 5832 5830 5828 5826 5824 5822 5820 5817 5815 5812 5809 5807 5804 5802 5799 5796 5793 5789 5786 5783 5779 5776 5772 5769 5765 5761 5758 5754 5751 5747 5744 5741
5836 5836 5835 5834 5833 5832 5830 5829 5828 5827 5826 5824 5823 5821 5819 5817 5815 5813 5811 5808 5806 5803 5800 5798 5795 5792 5789 5786 5783 5779 5776 5773 5769 5766 5762 5758 5754 5751 5747 5743 5740 5736 5733
5828 5827 5827 5826 5825 5824 5823 5821 5820 5819 5818 5817 5815 5814 5812 5810 5808 5806 5804 5802 5799 5797 5794 5791 5788 5785 5782 5779 5775 5772 5769 5766 5762 5759 5755 5751 5747 5743 5739 5736 5732 5729 5725
5819 5818 5817 5816 5816 5815 5814 5813 5812 5811 5809 5808 5807 5806 5804 5802 5801 5799 5797 5794 5792 5790 5787 5784 5781 5778 5775 5772 5768 5765 5761 5758 5754 5751 5747 5744 5740 5736 5732 5728 5724 5720 5717
5810 5809 5809 5808 5807 5806 5805 5805 5804 5802 5801 5799 5799 5798 5797 5795 5793 5792 5790 5787 5785 5782 5779 5776 5773 5770 5767 5764 5760 5757 5753 5750 5746 5743 5739 5735 5732 5728 5724 5720 5716 5712 5708
5800 5800 5799 5798 5798 5797 5797 5796 5795 5794 5793 5792 5791 5790 5788 5787 5785 5784 5781 5779 5776 5774 5771 5768 5765 5762 5759 5755 5752 5749 5745 5742 5738 5734 5730 5727 5723 5719 5715 5711 5707 5704 5700
5791 5790 5790 5789 5789 5788 5788 5787 5786 5786 5785 5784 5783 5782 5781 5779 5777 5775 5773 5771 5768 5765 5762 5760 5757 5754 5750 5747 5743 5740 5736 5733 5729 5726 5722 5718 5714 5710 5706 5702 5698 5694 5691
5782 5781 5781 5780 5779 5779 5779 5778 5778 5777 5776 5775 5774 5773 5772 5770 5768 5766 5764 5762 5759 5757 5754 5751 5748 5744 5741 5738 5734 5731 5727 5724 5720 5716 5712 5709 5705 5701 5696 5693 5689 5685 5681
5772 5772 5771 5771 5769 5769 5769 5769 5768 5768 5767 5766 5765 5764 5763 5761 5759 5757 5755 5753 5750 5747 5745 5742 5738 5735 5732 5729 5725 5722 5718 5714 5710 5706 5702 5698 5694 5691 5687 5683 5679 5675 5671
5763 5762 5762 5761 5761 5760 5760 5760 5759 5758 5757 5757 5756 5755 5754 5752 5750 5748 5746 5743 5741 5738 5736 5732 5729 5725 5722 5718 5715 5711 5708 5704 5700 5696 5692 5688 5685 5681 5677 5673 5669 5665 5661
Wind_Speed
15 16 16 15 14 14 15 14 14 14 15 15 14 14 14 14 14 14 13 13 13 13 13 14 14 15 16 16 16 16 16 17 17 17 17 17 18 19 19 19 19 18 18
15 16 17 16 15 15 16 15 16 15 15 15 15 15 14 14 14 14 14 13 13 12 13 13 14 14 14 14 15 16 17 18 18 17 17 18 17 17 18 18 19 19 20
16 16 16 16 16 16 16 16 16 17 16 16 15 15 15 15 14 14 14 13 13 13 13 13 13 14 15 16 17 18 18 18 17 17 17 17 17 18 18 19 19 19 20
16 17 17 16 16 16 16 17 17 17 17 17 16 16 16 15 15 14 14 14 14 14 14 14 15 16 17 17 18 18 18 18 18 18 18 18 18 19 19 19 19 19 20
17 18 18 17 17 17 17 17 18 18 18 18 17 17 17 16 16 16 16 16 16 16 16 16 16 18 18 19 19 19 19 19 19 18 18 18 18 18 19 20 20 20 21
18 18 18 18 18 18 18 18 19 19 19 18 18 18 17 17 17 17 17 17 17 17 17 18 19 19 20 20 20 21 20 20 19 19 18 18 19 20 21 21 22 22 22
20 19 18 18 19 19 19 19 19 19 19 19 19 19 18 18 18 18 18 19 19 19 19 19 20 20 20 21 21 21 21 21 20 20 20 20 21 22 22 23 23 23 23
21 20 19 19 19 20 20 20 20 20 20 20 20 20 19 19 19 19 19 20 20 20 20 20 20 20 21 21 21 20 20 21 20 20 21 22 22 23 24 24 24 24 25
22 21 21 20 20 20 20 21 21 21 21 21 21 21 20 20 20 20 20 20 21 21 20 21 21 21 21 22 21 21 21 21 22 23 23 24 24 25 26 26 26 25 25
23 23 23 22 22 21 21 22 22 22 22 22 21 21 21 20 20 21 21 21 21 21 21 21 21 21 21 22 22 21 22 22 23 23 24 24 25 26 27 27 26 26 26
24 24 24 24 23 23 23 23 23 23 23 23 22 22 21 21 22 22 22 22 22 22 22 22 22 21 22 22 22 22 22 22 23 23 24 24 25 26 26 26 26 26 26
25 24 25 25 24 25 24 24 24 23 23 23 23 22 22 22 23 23 23 23 23 23 23 23 22 22 22 22 22 22 23 23 24 24 24 24 25 25 26 26 26 26 26
26 26 25 25 25 26 25 25 25 24 24 23 23 23 22 23 23 24 24 24 24 24 23 23 23 23 22 22 22 23 23 24 24 24 24 24 25 25 25 25 26 26 26
27 26 26 26 26 26 26 25 25 24 24 24 24 24 23 24 24 24 24 24 24 24 23 23 23 23 24 24 24 24 24 24 24 24 24 24 24 25 25 26 26 26 26
28 28 27 27 27 27 26 26 25 25 26 26 25 25 25 25 25 25 25 25 25 24 24 24 24 24 24 24 25 26 25 25 25 26 25 25 26 26 26 27 26 26 26
29 28 28 28 27 26 26 26 26 26 26 27 26 26 26 26 26 26 26 26 26 25 25 24 25 25 25 25 26 26 25 26 26 26 27 27 28 28 28 28 28 27 28
28 28 28 28 28 27 26 26 26 27 28 27 27 27 27 27 27 27 27 27 26 26 25 25 26 26 26 27 27 27 26 27 27 27 28 28 29 29 29 29 29 29 28
30 29 29 28 28 28 28 28 27 28 28 28 28 28 27 27 28 27 27 27 27 27 27 26 27 27 28 29 29 29 28 29 29 29 29 29 30 30 30 30 30 29 29
31 30 30 29 29 29 29 30 29 29 30 29 29 28 28 28 28 28 28 28 27 28 28 28 28 28 29 30 30 29 30 30 30 29 30 30 31 31 31 31 30 30 30
32 32 31 30 31 31 31 30 30 30 30 31 29 28 28 28 28 28 28 28 29 29 29 29 30 30 31 31 31 31 31 31 31 31 31 32 32 32 32 32 32 31 31
32 31 31 31 31 31 31 30 30 30 30 29 29 28 28 28 29 29 29 30 30 30 30 30 31 32 32 32 32 32 32 32 32 32 32 33 34 34 33 33 33 32 32
32 32 32 31 31 31 31 32 31 31 30 30 29 29 29 30 30 29 30 30 30 30 31 31 32 32 33 33 33 33 33 33 33 33 33 34 35 34 34 34 33 32 33
32 32 32 33 33 32 32 32 31 31 31 30 30 29 30 30 30 30 31 30 30 31 32 32 33 33 34 33 33 33 34 34 34 34 34 35 35 35 35 34 34 34 34
33 33 34 33 33 32 31 31 31 32 32 31 31 31 30 30 31 31 31 31 31 32 33 33 33 34 34 33 33 34 34 35 35 35 35 36 36 36 36 35 35 35 35
34 34 33 33 32 32 31 31 30 31 31 31 31 32 32 32 32 32 32 32 32 33 33 34 34 35 34 34 34 35 35 36 36 37 37 37 37 36 35 35 35 35 35
34 34 33 33 31 30 30 31 31 32 32 32 32 32 32 32 32 32 33 33 33 33 34 34 35 36 35 35 36 36 36 36 36 37 37 37 36 35 35 36 36 35 35
Wind_Direction
345 348 349 347 346 345 345 346 346 345 343 342 342 340 338 335 332 326 319 316 313 308 306 305 305 306 306 306 307 309 308 309 308 308 308 308 307 304 302 301 304 305 302
337 341 344 343 341 340 340 339 340 340 340 341 340 338 338 336 335 333 329 324 321 317 314 311 309 309 310 310 309 308 307 307 307 307 307 307 308 309 307 307 307 306 306
331 332 336 339 338 338 339 339 337 335 334 334 336 335 334 333 332 333 333 331 328 322 317 314 313 313 313 312 312 311 309 309 310 310 308 308 309 309 309 308 306 305 302
327 327 329 331 331 332 333 334 333 331 331 332 330 330 329 329 328 327 326 326 326 324 320 318 316 315 315 314 313 313 312 311 310 311 309 309 308 308 309 310 308 306 305
322 323 324 325 326 328 329 329 328 328 328 328 327 326 325 323 322 321 321 322 322 321 320 317 315 314 313 312 312 312 312 311 309 309 310 309 308 309 310 311 310 307 307
316 317 318 319 320 322 324 325 325 325 325 325 325 324 321 319 318 318 318 319 319 319 318 317 315 315 314 314 313 311 310 309 308 308 310 309 309 309 310 310 309 307 306
309 310 312 313 314 316 318 320 322 323 324 324 323 322 321 318 317 317 316 317 317 317 318 318 317 317 317 315 313 310 307 306 307 309 309 310 310 311 310 310 309 307 307
304 305 307 308 309 312 315 316 318 320 321 321 321 321 319 317 316 316 316 316 316 316 317 317 318 317 318 318 315 312 309 308 308 308 308 309 309 311 311 310 308 307 306
300 301 303 304 305 307 310 313 314 316 317 318 317 319 318 317 316 315 316 315 316 316 316 317 317 317 316 316 316 314 311 309 308 306 306 307 307 309 310 309 307 306 306
296 296 298 300 302 303 306 309 311 313 314 315 314 315 316 315 315 314 315 314 314 314 314 315 316 315 315 315 314 313 311 309 309 308 307 307 308 309 310 310 308 306 305
294 292 293 295 298 299 302 304 306 308 310 312 312 313 313 312 313 313 312 311 311 311 313 315 315 315 315 314 314 313 312 311 309 309 309 309 310 311 311 309 307 306 306
292 292 293 293 295 296 298 300 301 303 305 308 309 310 310 310 310 311 311 309 310 311 311 313 315 316 317 316 315 314 313 312 311 311 310 310 311 311 311 310 309 308 307
289 290 292 293 293 295 296 298 298 299 301 303 306 308 308 309 309 309 309 309 309 310 310 310 312 314 316 316 315 315 314 313 312 311 310 310 311 311 312 312 311 310 309
285 288 290 291 292 293 294 295 295 296 298 300 302 304 306 308 308 308 308 309 310 310 309 309 310 311 313 314 314 315 314 314 313 314 313 313 312 312 312 312 312 310 310
284 285 286 289 290 292 292 291 292 294 296 298 299 300 303 305 306 306 307 308 308 308 308 308 307 309 310 312 314 315 315 315 315 314 314 313 313 313 312 313 312 312 311
283 284 285 287 289 290 290 290 290 292 294 297 298 300 301 303 303 305 306 306 306 306 306 306 307 307 309 311 313 313 314 315 315 315 314 314 314 314 313 313 311 310 309
281 283 284 286 288 290 289 289 289 291 293 293 296 298 299 300 302 302 304 305 304 305 306 306 307 307 308 309 311 311 311 312 313 313 313 313 313 313 313 312 310 309 309
279 281 282 285 287 288 288 288 289 290 290 291 293 295 296 297 300 301 302 302 302 303 305 305 305 305 306 307 308 309 310 311 311 311 312 312 312 312 311 311 311 310 309
278 280 281 282 284 286 287 287 288 289 290 290 291 292 293 295 296 298 300 300 301 302 303 303 304 304 305 306 307 307 307 308 309 309 310 310 311 311 310 310 309 309 308
276 278 281 282 282 284 286 286 288 289 289 290 289 289 290 293 295 296 298 298 299 301 301 302 303 304 304 306 307 307 306 308 308 308 308 308 309 309 310 309 308 307 306
275 277 279 281 282 283 284 286 288 288 288 288 288 289 290 291 293 295 297 298 298 299 300 301 302 303 304 305 306 306 306 307 307 307 307 307 308 308 308 308 307 306 306
274 277 279 281 282 283 284 285 286 288 289 290 290 290 290 292 294 295 297 298 297 297 298 300 301 302 304 304 305 305 305 306 306 306 306 307 307 307 307 306 306 306 306
274 277 279 281 281 281 283 283 283 285 287 289 291 292 291 293 295 295 296 296 297 297 298 299 300 302 302 303 303 304 303 304 305 305 306 306 305 305 305 305 305 305 306
274 276 278 279 278 278 281 282 282 283 286 287 289 291 291 292 295 295 295 294 295 296 298 300 300 301 301 301 302 302 302 302 303 304 304 304 304 304 304 304 305 306 306
274 276 276 276 276 277 278 279 281 283 285 287 289 291 292 293 293 294 295 295 296 297 298 299 299 300 299 300 301 301 302 302 302 302 302 302 303 304 304 305 305 304 304
274 275 274 274 277 278 278 278 280 282 284 287 289 290 290 292 292 293 294 295 296 296 297 298 299 299 299 301 302 301 301 301 301 301 301 301 302 303 304 305 304 304 304